Tracking 27420 objects as of 28-May-2023
HD Live streaming from Space Station
objects crossing your sky now

ELECTRON KICK STAGE

Track ELECTRON KICK STAGE now!
10-day predictions


NORAD ID: 51848
Int'l Code: 2020-020B
Perigee: 450.8 km
Apogee: 509.7 km
Inclination: 97.0 °
Period: 94.1 minutes
Semi major axis: 6851 km
RCS: Unknown
Launch date: February 28, 2022
Source: United States (US)
Launch site: Rocket Lab Launch Complex (RLLC)

Note: This is a ROCKET BODY
Your satellite tracking list
Your tracking list is empty




NASA's NSSDC Master Catalog

Two Line Element Set (TLE):
1 51848U 22020B   23148.08521900  .00015948  00000-0  52098-3 0  9999
2 51848  97.0288 178.3261 0042922 225.1251 134.6503 15.30906156 68920
Source of the keplerian elements: AFSPC